Time,TemperatureF,DewpointF,PressureIn,WindDirection,WindDirectionDegrees,WindSpeedMPH,WindSpeedGustMPH,Humidity,HourlyPrecipIn,Conditions,Clouds,dailyrainin,SoftwareType,DateUTC
2013-12-13 00:03:00,25.6,14.0,30.47,SSW,204,0.0,1.0,61,0.00,,,0.00,weatherlink.com 1.10,2013-12-13 05:03:00,
2013-12-13 00:18:00,25.4,14.0,30.48,SSW,204,0.0,0.0,61,0.00,,,0.00,weatherlink.com 1.10,2013-12-13 05:18:00,
2013-12-13 00:33:00,25.5,13.0,30.47,SSW,204,1.0,1.0,59,0.00,,,0.00,weatherlink.com 1.10,2013-12-13 05:33:00,
2013-12-13 00:48:00,25.7,13.0,30.47,SSW,204,0.0,1.0,59,0.00,,,0.00,weatherlink.com 1.10,2013-12-13 05:48:00,
2013-12-13 01:03:00,25.8,13.0,30.47,SSW,204,1.0,1.0,59,0.00,,,0.00,weatherlink.com 1.10,2013-12-13 06:03:00,
2013-12-13 01:18:00,26.1,13.0,30.46,SSW,207,1.0,1.0,59,0.00,,,0.00,weatherlink.com 1.10,2013-12-13 06:18:00,
2013-12-13 01:33:00,26.2,13.0,30.46,SSW,207,0.0,1.0,58,0.00,,,0.00,weatherlink.com 1.10,2013-12-13 06:33:00,
2013-12-13 01:48:00,26.1,13.0,30.47,SSW,207,0.0,0.0,58,0.00,,,0.00,weatherlink.com 1.10,2013-12-13 06:48:00,
2013-12-13 02:03:00,26.0,13.0,30.48,SSW,201,1.0,1.0,57,0.00,,,0.00,weatherlink.com 1.10,2013-12-13 07:03:00,
2013-12-13 02:19:00,26.1,13.0,30.48,SSW,201,0.0,1.0,57,0.00,,,0.00,weatherlink.com 1.10,2013-12-13 07:19:00,
2013-12-13 02:34:00,25.3,13.0,30.49,SSW,202,0.0,1.0,60,0.00,,,0.00,weatherlink.com 1.10,2013-12-13 07:34:00,
2013-12-13 02:49:00,25.2,13.0,30.48,SSW,201,0.0,0.0,59,0.00,,,0.00,weatherlink.com 1.10,2013-12-13 07:49:00,
2013-12-13 03:04:00,24.3,15.0,30.48,SSW,201,0.0,0.0,68,0.00,,,0.00,weatherlink.com 1.10,2013-12-13 08:04:00,
2013-12-13 03:19:00,22.8,13.0,30.48,SSW,201,0.0,0.0,67,0.00,,,0.00,weatherlink.com 1.10,2013-12-13 08:19:00,
2013-12-13 03:34:00,22.7,14.0,30.48,SSW,202,0.0,0.0,68,0.00,,,0.00,weatherlink.com 1.10,2013-12-13 08:34:00,
2013-12-13 03:49:00,22.3,14.0,30.47,SSW,201,0.0,1.0,70,0.00,,,0.00,weatherlink.com 1.10,2013-12-13 08:49:00,
2013-12-13 04:04:00,21.9,14.0,30.48,SSW,202,0.0,1.0,73,0.00,,,0.00,weatherlink.com 1.10,2013-12-13 09:04:00,
2013-12-13 04:19:00,22.4,13.0,30.47,SSW,207,1.0,2.0,67,0.00,,,0.00,weatherlink.com 1.10,2013-12-13 09:19:00,
2013-12-13 04:34:00,24.2,12.0,30.47,SSW,200,0.0,3.0,60,0.00,,,0.00,weatherlink.com 1.10,2013-12-13 09:34:00,
2013-12-13 04:49:00,25.1,12.0,30.47,SSW,202,1.0,2.0,58,0.00,,,0.00,weatherlink.com 1.10,2013-12-13 09:49:00,
2013-12-13 05:04:00,25.2,11.0,30.47,SSW,201,1.0,1.0,56,0.00,,,0.00,weatherlink.com 1.10,2013-12-13 10:04:00,
2013-12-13 05:19:00,25.3,11.0,30.46,SSW,201,1.0,1.0,55,0.00,,,0.00,weatherlink.com 1.10,2013-12-13 10:19:00,
2013-12-13 05:34:00,25.4,11.0,30.46,SSW,203,0.0,1.0,54,0.00,,,0.00,weatherlink.com 1.10,2013-12-13 10:34:00,
2013-12-13 05:49:00,25.3,11.0,30.46,SSW,203,0.0,0.0,54,0.00,,,0.00,weatherlink.com 1.10,2013-12-13 10:49:00,
2013-12-13 06:04:00,25.3,10.0,30.46,SSW,203,0.0,0.0,52,0.00,,,0.00,weatherlink.com 1.10,2013-12-13 11:04:00,
2013-12-13 06:19:00,25.1,10.0,30.46,SSW,203,0.0,0.0,53,0.00,,,0.00,weatherlink.com 1.10,2013-12-13 11:19:00,
2013-12-13 06:34:00,25.2,11.0,30.46,SSW,203,0.0,0.0,54,0.00,,,0.00,weatherlink.com 1.10,2013-12-13 11:34:00,
2013-12-13 06:49:00,25.4,11.0,30.46,SSW,203,0.0,1.0,54,0.00,,,0.00,weatherlink.com 1.10,2013-12-13 11:49:00,
2013-12-13 07:04:00,25.5,10.0,30.46,SSW,203,0.0,1.0,51,0.00,,,0.00,weatherlink.com 1.10,2013-12-13 12:04:00,
2013-12-13 07:19:00,25.5,11.0,30.46,SSW,200,1.0,1.0,54,0.00,,,0.00,weatherlink.com 1.10,2013-12-13 12:19:00,
2013-12-13 07:34:00,25.6,11.0,30.46,SSW,199,0.0,1.0,54,0.00,,,0.00,weatherlink.com 1.10,2013-12-13 12:34:00,
2013-12-13 07:49:00,25.6,11.0,30.47,SSW,200,0.0,0.0,55,0.00,,,0.00,weatherlink.com 1.10,2013-12-13 12:49:00,
2013-12-13 08:04:00,25.1,14.0,30.46,SSW,200,0.0,0.0,62,0.00,,,0.00,weatherlink.com 1.10,2013-12-13 13:04:00,
2013-12-13 08:19:00,23.9,15.0,30.47,SSW,200,0.0,0.0,70,0.00,,,0.00,weatherlink.com 1.10,2013-12-13 13:19:00,
2013-12-13 08:34:00,22.8,15.0,30.47,SSW,200,0.0,0.0,73,0.00,,,0.00,weatherlink.com 1.10,2013-12-13 13:34:00,
2013-12-13 08:49:00,22.2,14.0,30.47,SSW,200,0.0,0.0,71,0.00,,,0.00,weatherlink.com 1.10,2013-12-13 13:49:00,
2013-12-13 09:04:00,22.3,15.0,30.48,SSW,200,0.0,0.0,73,0.00,,,0.00,weatherlink.com 1.10,2013-12-13 14:04:00,
2013-12-13 09:19:00,23.0,16.0,30.48,SSW,200,0.0,0.0,74,0.00,,,0.00,weatherlink.com 1.10,2013-12-13 14:19:00,
2013-12-13 09:34:00,24.0,17.0,30.48,SSW,200,0.0,0.0,73,0.00,,,0.00,weatherlink.com 1.10,2013-12-13 14:34:00,
2013-12-13 09:49:00,24.9,15.0,30.49,SSW,200,0.0,0.0,67,0.00,,,0.00,weatherlink.com 1.10,2013-12-13 14:49:00,
2013-12-13 10:04:00,26.6,17.0,30.49,SSW,200,0.0,0.0,68,0.00,,,0.00,weatherlink.com 1.10,2013-12-13 15:04:00,
2013-12-13 10:19:00,28.8,18.0,30.48,SSW,200,0.0,0.0,63,0.00,,,0.00,weatherlink.com 1.10,2013-12-13 15:19:00,
2013-12-13 10:34:00,29.9,19.0,30.48,NNE,29,0.0,0.0,64,0.00,,,0.00,weatherlink.com 1.10,2013-12-13 15:34:00,
2013-12-13 10:49:00,31.7,21.0,30.48,NNE,32,0.0,1.0,65,0.00,,,0.00,weatherlink.com 1.10,2013-12-13 15:49:00,
2013-12-13 11:05:00,33.4,19.0,30.47,NE,38,0.0,1.0,55,0.00,,,0.00,weatherlink.com 1.10,2013-12-13 16:05:00,
2013-12-13 11:20:00,34.3,21.0,30.45,NE,39,0.0,0.0,59,0.00,,,0.00,weatherlink.com 1.10,2013-12-13 16:20:00,
2013-12-13 11:35:00,35.2,21.0,30.45,NNE,15,0.0,1.0,56,0.00,,,0.00,weatherlink.com 1.10,2013-12-13 16:35:00,
2013-12-13 11:50:00,36.2,22.0,30.44,NNW,334,0.0,1.0,57,0.00,,,0.00,weatherlink.com 1.10,2013-12-13 16:50:00,
2013-12-13 12:05:00,37.2,22.0,30.43,NW,323,0.0,0.0,55,0.00,,,0.00,weatherlink.com 1.10,2013-12-13 17:05:00,
2013-12-13 12:20:00,38.2,22.0,30.42,NW,319,0.0,0.0,53,0.00,,,0.00,weatherlink.com 1.10,2013-12-13 17:20:00,
2013-12-13 12:35:00,39.1,22.0,30.41,NW,311,0.0,0.0,50,0.00,,,0.00,weatherlink.com 1.10,2013-12-13 17:35:00,
2013-12-13 12:50:00,40.1,21.0,30.40,NE,46,0.0,0.0,46,0.00,,,0.00,weatherlink.com 1.10,2013-12-13 17:50:00,
2013-12-13 13:05:00,40.9,21.0,30.40,NNW,330,0.0,1.0,46,0.00,,,0.00,weatherlink.com 1.10,2013-12-13 18:05:00,
2013-12-13 13:20:00,41.7,22.0,30.39,NNW,332,2.0,2.0,46,0.00,,,0.00,weatherlink.com 1.10,2013-12-13 18:20:00,
2013-12-13 13:35:00,42.1,22.0,30.38,NW,320,2.0,3.0,45,0.00,,,0.00,weatherlink.com 1.10,2013-12-13 18:35:00,
2013-12-13 13:50:00,42.3,22.0,30.38,NE,56,1.0,3.0,44,0.00,,,0.00,weatherlink.com 1.10,2013-12-13 18:50:00,
2013-12-13 14:05:00,42.8,22.0,30.37,WNW,296,1.0,4.0,44,0.00,,,0.00,weatherlink.com 1.10,2013-12-13 19:05:00,
2013-12-13 14:20:00,43.3,22.0,30.36,NW,307,1.0,2.0,43,0.00,,,0.00,weatherlink.com 1.10,2013-12-13 19:20:00,
2013-12-13 14:35:00,43.7,22.0,30.36,North,4,0.0,2.0,42,0.00,,,0.00,weatherlink.com 1.10,2013-12-13 19:35:00,
2013-12-13 14:50:00,44.1,22.0,30.36,NW,325,3.0,4.0,41,0.00,,,0.00,weatherlink.com 1.10,2013-12-13 19:50:00,
2013-12-13 15:05:00,44.4,21.0,30.36,NNW,330,1.0,4.0,39,0.00,,,0.00,weatherlink.com 1.10,2013-12-13 20:05:00,
2013-12-13 15:20:00,44.5,21.0,30.35,SSW,198,0.0,3.0,39,0.00,,,0.00,weatherlink.com 1.10,2013-12-13 20:20:00,
2013-12-13 15:35:00,44.3,21.0,30.34,WNW,296,0.0,3.0,39,0.00,,,0.00,weatherlink.com 1.10,2013-12-13 20:35:00,
2013-12-13 15:50:00,44.3,20.0,30.34,WNW,287,0.0,2.0,38,0.00,,,0.00,weatherlink.com 1.10,2013-12-13 20:50:00,
2013-12-13 16:05:00,44.0,20.0,30.34,SW,217,0.0,2.0,39,0.00,,,0.00,weatherlink.com 1.10,2013-12-13 21:05:00,
2013-12-13 16:20:00,44.0,20.0,30.34,SW,217,1.0,1.0,39,0.00,,,0.00,weatherlink.com 1.10,2013-12-13 21:20:00,
2013-12-13 16:36:00,43.5,20.0,30.33,SW,217,0.0,1.0,39,0.00,,,0.00,weatherlink.com 1.10,2013-12-13 21:36:00,
2013-12-13 16:51:00,43.6,20.0,30.34,SSW,202,0.0,1.0,39,0.00,,,0.00,weatherlink.com 1.10,2013-12-13 21:51:00,
2013-12-13 17:06:00,43.3,20.0,30.34,SSW,205,0.0,2.0,40,0.00,,,0.00,weatherlink.com 1.10,2013-12-13 22:06:00,
2013-12-13 17:21:00,42.5,20.0,30.34,SSW,203,1.0,1.0,41,0.00,,,0.00,weatherlink.com 1.10,2013-12-13 22:21:00,
2013-12-13 17:36:00,41.8,21.0,30.34,SSW,200,1.0,2.0,43,0.00,,,0.00,weatherlink.com 1.10,2013-12-13 22:36:00,
2013-12-13 17:51:00,41.8,21.0,30.34,SSW,202,1.0,1.0,43,0.00,,,0.00,weatherlink.com 1.10,2013-12-13 22:51:00,
2013-12-13 18:06:00,42.0,20.0,30.34,SW,218,0.0,2.0,41,0.00,,,0.00,weatherlink.com 1.10,2013-12-13 23:06:00,
2013-12-13 18:23:00,41.1,20.0,30.35,SW,217,1.0,1.0,43,0.00,,,0.00,weatherlink.com 1.10,2013-12-13 23:23:00,
2013-12-13 18:36:00,41.5,20.0,30.33,SSW,204,0.0,1.0,43,0.00,,,0.00,weatherlink.com 1.10,2013-12-13 23:36:00,
2013-12-13 18:51:00,41.5,20.0,30.32,SSW,204,0.0,1.0,42,0.00,,,0.00,weatherlink.com 1.10,2013-12-13 23:51:00,
2013-12-13 19:06:00,40.7,21.0,30.33,SSW,205,0.0,1.0,45,0.00,,,0.00,weatherlink.com 1.10,2013-12-14 00:06:00,
2013-12-13 19:21:00,40.5,21.0,30.33,SSW,204,1.0,1.0,46,0.00,,,0.00,weatherlink.com 1.10,2013-12-14 00:21:00,
2013-12-13 19:36:00,40.4,21.0,30.34,SSW,203,0.0,1.0,46,0.00,,,0.00,weatherlink.com 1.10,2013-12-14 00:36:00,
2013-12-13 19:51:00,40.1,22.0,30.34,SSW,202,0.0,1.0,48,0.00,,,0.00,weatherlink.com 1.10,2013-12-14 00:51:00,
2013-12-13 20:06:00,39.6,24.0,30.35,SSW,202,0.0,0.0,53,0.00,,,0.00,weatherlink.com 1.10,2013-12-14 01:06:00,
2013-12-13 20:21:00,39.5,22.0,30.35,SSW,210,2.0,2.0,50,0.00,,,0.00,weatherlink.com 1.10,2013-12-14 01:21:00,
2013-12-13 20:36:00,39.9,22.0,30.34,SSW,210,0.0,1.0,49,0.00,,,0.00,weatherlink.com 1.10,2013-12-14 01:36:00,
2013-12-13 20:51:00,39.6,23.0,30.34,West,281,0.0,2.0,51,0.00,,,0.00,weatherlink.com 1.10,2013-12-14 01:51:00,
2013-12-13 21:06:00,39.4,22.0,30.35,West,264,1.0,1.0,51,0.00,,,0.00,weatherlink.com 1.10,2013-12-14 02:06:00,
2013-12-13 21:21:00,39.5,23.0,30.34,South,181,0.0,2.0,51,0.00,,,0.00,weatherlink.com 1.10,2013-12-14 02:21:00,
2013-12-13 21:36:00,39.5,24.0,30.34,SE,130,0.0,0.0,55,0.00,,,0.00,weatherlink.com 1.10,2013-12-14 02:36:00,
2013-12-13 21:51:00,38.7,24.0,30.34,SE,132,0.0,1.0,55,0.00,,,0.00,weatherlink.com 1.10,2013-12-14 02:51:00,
2013-12-13 22:06:00,38.5,23.0,30.33,SSW,194,0.0,1.0,54,0.00,,,0.00,weatherlink.com 1.10,2013-12-14 03:06:00,
2013-12-13 22:21:00,38.9,24.0,30.33,SSW,210,0.0,1.0,55,0.00,,,0.00,weatherlink.com 1.10,2013-12-14 03:21:00,
2013-12-13 22:36:00,38.7,23.0,30.32,SSW,210,0.0,1.0,53,0.00,,,0.00,weatherlink.com 1.10,2013-12-14 03:36:00,
2013-12-13 22:51:00,38.4,24.0,30.32,SSW,210,0.0,1.0,56,0.00,,,0.00,weatherlink.com 1.10,2013-12-14 03:51:00,
2013-12-13 23:06:00,38.4,23.0,30.32,SSW,210,0.0,0.0,55,0.00,,,0.00,weatherlink.com 1.10,2013-12-14 04:06:00,
2013-12-13 23:21:00,38.3,24.0,30.32,West,264,1.0,2.0,56,0.00,,,0.00,weatherlink.com 1.10,2013-12-14 04:21:00,
2013-12-13 23:36:00,38.4,23.0,30.31,West,264,0.0,1.0,55,0.00,,,0.00,weatherlink.com 1.10,2013-12-14 04:36:00,
2013-12-13 23:51:00,38.6,24.0,30.33,WNW,293,1.0,3.0,56,0.00,,,0.00,weatherlink.com 1.10,2013-12-14 04:51:00,